Location: Peterborough
(44.3091°N, 78.3197°W)
Time: 16:43:48
(UTC-04:00)

Explorer 7 - Pass Details

Date: 27 March 2023
Orbit: 477 x 653 km, 50.3° (Epoch: 04 June)

Event Time Altitude Azimuth Distance (km) Brightness Sun altitude
Rises 18:05:42 0° 252° (WSW) 2,911 12.4 14.9°
Reaches altitude 10° 18:08:06 10° 255° (WSW) 1,981 12.6 14.5°
Maximum altitude 18:12:37 64° 337° (NNW) 662 7.5 13.7°
Drops below altitude 10° 18:16:53 10° 60° (ENE) 1,875 9.0 12.9°
Sets 18:19:06 0° 63° (ENE) 2,741 9.8 12.6°
